星链-32149 (STARLINK-32149)

导读

STARLINK-32149是美国SpaceX公司于2024年7月28日发射的星链(Starlink)低轨卫星,归属星链第二代组网建设序列。作为星链全球卫星互联网星座的组成部分,它运行于近地轨道,通过星间链路与地面关口站协同,旨在为全球偏远区域、灾害应急场景及航空航运等领域,提供高速低延迟的宽带接入服务,推动星链星座覆盖规模与网络容量的持续拓展。

Basic Information
目录编号:
60292
目录名称:
STARLINK-32149
国际标识:
2024-132Q
轨道中心:
EARTH
卫星名称:
星链-32149 (STARLINK-32149)
卫星全名:
星链-32149 (STARLINK-32149)
卫星状态:
在轨 (已飞行768 天)
发射日期:
2024-07-28 UTC
国别 :
美国 (US)
星等 :
--
Orbit Information
数据来源 国际轨道数据
星历时间: 2026-09-03T21:00:42+0800
20小时前
查看轨道信息
半长轴: 6848.869km
偏心率: 0.0001247
轨道倾角: 53.161°
近地点辐角 75.073°
升交点赤经 305.390°
平近点角 285.041°
近地点: 469.877km
远地点: 471.587km
周期: 94.013分钟
每日圈数: 15.317029
Detailed Information
卫星平台:
Starlink v2.0 mini
运营商:
太空探索技术公司
运营商所在国:
美国
制造商(研发单位):
太空探索技术公司
制造商所在国:
美国
使用方式:
暂无
Satellite Introduction
星链(Starlink)计划是由太空探索技术公司(SpaceX)提出的一个巨型低轨卫星互联网星座项目,计划在2019年至2024年间在太空搭建由约1.2万颗卫星组成的“星链”网络,其中1584颗将部署在地球上空550千米处的近地轨道,并从2020年开始工作。该卫星仍在工作。
2D Orbit Map
3D Orbit Map
Orbit Altitude Analysis Chart
Orbit Inclination Analysis Chart
Orbit Comprehensive Analysis Chart
View Comprehensive Chart
Conjunction Data List
Event ID Objects TCA Miss Dist (km) Collision Risk Probability Collision Risk Index (CRI) Action
CDM_260904-215106-029206-540021
2026-09-04T
21:51:18+0000
1.404 km
极远距离
8.338108E-6 低风险 0.53
CDM_260904-223806-029206-540021
2026-09-04T
22:38:19+0000
2.077 km
极远距离
2.595422E-6 低风险 0.43
CDM_260830-091206-029206-914722
2026-08-30T
09:12:46+0000
2.278 km
极远距离
1.920865E-6 低风险 0.41
CDM_260904-201506-029206-874921
2026-09-04T
20:15:14+0000
2.778 km
极远距离
1.476458E-6 低风险 0.38
CDM_260904-092206-029206-823021
2026-09-04T
09:22:11+0000
2.846 km
极远距离
1.43011E-6 低风险 0.38
CDM_260905-224706-029206-881621
2026-09-05T
22:47:59+0000
2.903 km
极远距离
1.382793E-6 低风险 0.38
CDM_260904-103905-632106-029221
2026-09-04T
10:39:44+0000
2.911 km
极远距离
1.02284E-6 低风险 0.35